This demonstration page uses our WeatherBlox Daily Observations layout. Learn more.

Left ArrowRight Arrow

Hourly Observations for June 23, 2019

Temp ( °F °C ) Dew Point ( °F °C ) Humidity (%) Winds ( mph kmh ) Pressure ( in mb ) Visibility ( mi km ) Precip ( " mm )
12:59 am 00:59 Clear 64 17.8 59 15 84 84 Calm 30.07 1018 10 16 0.00 0.00
1:59 am 01:59 Clear 65 18.3 61 16.1 87 87 SW 5 7 30.07 1018 10 16 0.00 0.00
2:59 am 02:59 Clear 65 18.3 59 15 81 81 Calm 30.05 1018 10 16 0.00 0.00
3:59 am 03:59 Clear 62 16.7 58 14.4 86 86 Calm 30.06 1018 10 16 0.00 0.00
4:59 am 04:59 Mostly Clear 61 16.1 58 14.4 90 90 Calm 30.06 1018 10 16 0.00 0.00
5:59 am 05:59 Partly Cloudy 61 16.1 58 14.4 90 90 SW 5 7 30.07 1018 10 16 0.00 0.00
6:59 am 06:59 Partly Cloudy 66 18.9 61 16.1 84 84 Calm 30.09 1019 10 16 0.00 0.00
7:59 am 07:59 Partly Cloudy 73 22.8 63 17.2 71 71 WNW 3 6 30.09 1019 10 16 0.00 0.00
8:59 am 08:59 Mostly Cloudy 76 24.4 61 16.1 60 60 NNW 8 13 30.09 1019 10 16 0.00 0.00
9:59 am 09:59 Mostly Cloudy 79 26.1 58 14.4 49 49 NW 6 9 30.09 1019 10 16 0.00 0.00
10:59 am 10:59 Mostly Cloudy 80 26.7 56 13.3 44 44 NNE 7 11 30.08 1019 10 16 0.00 0.00
11:59 am 11:59 Mostly Cloudy 81 27.2 56 13.3 42 42 N 7 11 30.08 1019 10 16 0.00 0.00
12:59 pm 12:59 Partly Cloudy 82 27.8 50 10 33 33 VRB 6 9 30.07 1018 10 16 0.00 0.00
1:59 pm 13:59 Partly Cloudy 83 28.3 54 12.2 37 37 NNW 7 11 30.06 1018 10 16 0.00 0.00
2:59 pm 14:59 Partly Cloudy 83 28.3 52 11.1 34 34 N 7 11 30.04 1017 10 16 0.00 0.00
3:59 pm 15:59 Mostly Cloudy 83 28.3 53 11.7 36 36 VRB 3 6 30.03 1017 10 16 0.00 0.00
4:59 pm 16:59 Mostly Cloudy 82 27.8 55 12.8 40 40 E 5 7 30.02 1017 10 16 0.00 0.00
5:59 pm 17:59 Partly Cloudy 82 27.8 56 13.3 41 41 E 8 13 30.01 1016 10 16 0.00 0.00
6:59 pm 18:59 Partly Cloudy 81 27.2 56 13.3 42 42 ESE 6 9 29.99 1016 10 16 0.00 0.00
7:59 pm 19:59 Partly Cloudy 77 25 55 12.8 47 47 ESE 8 13 29.99 1016 10 16 0.00 0.00
8:59 pm 20:59 Partly Cloudy 74 23.3 55 12.8 52 52 SE 6 9 29.99 1016 10 16 0.00 0.00
9:59 pm 21:59 Mostly Clear 74 23.3 58 14.4 57 57 SSE 6 9 30.00 1016 10 16 0.00 0.00
10:59 pm 22:59 Mostly Clear 72 22.2 60 15.6 66 66 S 6 9 30.00 1016 10 16 0.00 0.00
11:59 pm 23:59 Clear 72 22.2 60 15.6 66 66 SSW 6 9 29.98 1015 10 16 0.00 0.00

Powered by AerisWeather